STARLINK-1772 (46678 NORAD) Tracking and Keplerian Element Data

This shows tracking and keplerian element data for the satellite.

Feedback or suggestion? Click here.




ElementValue
Catalog46678
NameSTARLINK-1772
Epoch Orbit782
Epoch Day338.83334491
Epoch Year2020
RAAN237.2278
Inclination53.0459
Eccentricity0.000702
Argument of Perigee56.3923
Mean Anonmoly353.9946
Mean Motion15.84677532
Decay Rate0.00074497
L11 46678U 20073J 20338.83334491 .00074497 00000-0 31554-3 0 9996
L22 46678 53.0459 237.2278 0007020 56.3923 353.9946 15.84677532 7821

Live tracking and technical data element details for STARLINK-1772 (NORAD 46678). STARLINK-1772 can be tracked NOW for your location showing map with azimuth and elevation plus other details from your city location.

Track the satellite on the map from your city or location and see movement details for azimuth, elevation, latitude, longitude, range, height, and movement on the map or in text.







IsCatalogInMostPopularTable: catalog: 46678, numindb: 6
Update: records affected: 1



GetName: 46678 STARLINK-1772

Hit Count: updated at: Sun, 06 Dec 2020 01:45:26 GMT